Location: Cork
(51.8990°N, 8.4960°W)
Time: 03:15:55
(UTC+01:00)

Iridium 66 - Visible Passes

Search period start: 23 September 2014 00:00
Search period end: 03 October 2014 00:00
Orbit: 776 x 779 km, 86.4° (Epoch: 22 September)

Date Brightness Start Highest point End Pass type
(mag) Time Alt. Az. Time Alt. Az. Time Alt. Az.
23 Sep 9.0 06:19:38 10° NNE 06:23:28 20° ENE 06:27:17 10° ESE visible
23 Sep 7.4 21:02:35 10° SSW 21:07:31 42° WNW 21:12:29 10° N visible
24 Sep 9.4 05:47:13 10° NE 05:49:28 13° ENE 05:51:43 10° E visible
24 Sep 6.4 20:28:40 10° SSW 20:33:51 70° W 20:39:05 10° N visible
24 Sep 9.2 22:13:26 10° W 22:15:38 13° WNW 22:17:50 10° NW visible
25 Sep 6.0 19:55:08 10° S 20:00:18 72° E 20:05:31 10° N visible
25 Sep 8.7 21:37:50 10° WSW 21:41:38 20° WNW 21:45:26 10° NNW visible
26 Sep 8.5 06:19:24 10° NNE 06:23:48 27° ENE 06:28:10 10° SE visible
26 Sep 8.0 21:03:08 10° SW 21:07:45 32° WNW 21:12:25 10° NNW visible
27 Sep 9.1 05:46:32 10° NNE 05:49:52 17° ENE 05:53:12 10° ESE visible
27 Sep 7.0 20:28:57 10° SSW 20:34:01 51° W 20:39:07 10° N visible
28 Sep 9.6 05:15:03 10° NE 05:15:49 10° ENE 05:16:35 10° ENE visible
28 Sep 6.9 06:52:37 10° N 06:57:47 58° E 07:02:54 10° SSE visible
28 Sep 6.2 19:55:11 10° S 20:00:24 85° W 20:05:39 10° N visible
28 Sep 9.1 21:39:01 10° W 21:42:00 15° WNW 21:45:00 10° NNW visible
29 Sep 7.9 06:19:17 10° N 06:24:04 35° ENE 06:28:49 10° SE visible
29 Sep 8.5 21:03:52 10° SW 21:08:03 24° WNW 21:12:15 10° NNW visible
30 Sep 8.7 05:46:10 10° NNE 05:50:14 22° ENE 05:54:15 10° ESE visible
30 Sep 7.7 20:29:23 10° SW 20:34:14 38° WNW 20:39:06 10° N visible
01 Oct 9.3 05:13:33 10° NNE 05:16:15 14° ENE 05:18:56 10° E visible
01 Oct 6.3 06:52:40 10° N 06:57:55 78° E 07:03:08 10° S visible
01 Oct 6.6 19:55:23 10° SSW 20:00:32 63° W 20:05:44 10° N visible
01 Oct 9.5 21:40:51 10° W 21:42:25 11° WNW 21:44:00 10° NW visible
02 Oct 7.2 06:19:14 10° N 06:24:17 47° E 06:29:18 10° SSE visible
02 Oct 9.0 21:04:50 10° WSW 21:08:23 18° WNW 21:11:57 10° NNW visible
